Regional Weather Roundup
Issued by NWS

Current Version | Previous Version | Text Only | Print | Product List | Glossary On
Versions: 1 2 3 4 5 6 7 8 9 10 11 12 13 14 15 16 17 18 19 20 21 22 23 24 25 26 27 28 29 30 31 32 33 34 35 36 37 38 39 40 41 42 43 44 45 46 47 48 49 50
000
ASUS43 KLOT 291310
RWRIL

ILLINOIS REGIONAL WEATHER ROUNDUP
NATIONAL WEATHER SERVICE CHICAGO/ROMEOVILLE IL
700 AM CST MON DEC 29 2014

NOTE: "FAIR" INDICATES FEW OR NO CLOUDS BELOW 12,000 FEET WITH NO
SIGNIFICANT WEATHER AND/OR OBSTRUCTIONS TO VISIBILITY.

* THESE STATIONS ARE NOT UNDER NWS QUALITY CONTROL. THEY ALSO MAY NOT
  REPORT WEATHER SUCH AS PRECIPITATION OR FOG.

ILZ001-002-007-009-015-016-024-291400-
NORTHWEST ILLINOIS

CITY           SKY/WX    TMP DP  RH WIND       PRES   REMARKS
MOLINE         CLOUDY    21  18  88 E3        30.32R
STERLING*      CLOUDY    27  19  74 NE7       30.33R WCI  19
SAVANNA*       CLOUDY    25  18  76 NE7       30.34R WCI  17
$$

ILZ003-004-008-010-011-017-018-291400-
NORTH CENTRAL ILLINOIS

CITY           SKY/WX    TMP DP  RH WIND       PRES   REMARKS
ROCKFORD       MOCLDY    23  17  78 N10       30.36R WCI  12
FREEPORT*      CLEAR     21  17  83 NE7       30.36R WCI  12
ROCHELLE*      PTCLDY    23  20  89 NE9       30.33R WCI  13
DE KALB*       MOCLDY    22  19  88 N8        30.32R WCI  13
PERU*          CLOUDY    22  19  87 NE6       30.33R WCI  15
$$

ILZ005-006-012>014-019>023-291400-
NORTHEAST ILLINOIS

CITY           SKY/WX    TMP DP  RH WIND       PRES   REMARKS
CHICAGO-OHARE  MOCLDY    25  19  78 N9        30.32R WCI  15
CHICAGO-MIDWAY PTCLDY    29  22  75 N10       30.31R WCI  20
AURORA         CLOUDY    25  19  78 N8        30.32R WCI  16
LANSING*       PTCLDY    25  22  89 CALM      30.31R
JOLIET*        CLEAR     23  18  83 N3        30.32R
WAUKEGAN       MOCLDY    23  17  78 N6        30.33R WCI  16
DUPAGE AIRPORT CLEAR     21  17  84 N8        30.31R WCI  11
KANKAKEE*      CLEAR     20  18  91 CALM      30.32R
WHEELING       PTCLDY    25  19  78 N8        30.34R WCI  16
MORRIS*        MOCLDY    22  19  88 N3        30.31R
ROMEOVILLE*    PTCLDY    23  18  80 N8        30.31R WCI  14
NORTHERLY ISL    N/A     31  25  78 N16         N/A  WCI  20
$$

LMZ740>746-291400-
SOUTHERN LAKE MICHIGAN

STATION/POSITION SKY/WX   TEMP    WIND        PRES    VSBY  WAVE
                          AIR SEA DIR/SP/G                  HT/PER
                          (F)     (DEG/KT/KT) (MB)    (MI)  (FT/S)
WAUKEGAN HARBOR            25     340/  7/ 11   N/A
HARRISON CRIB              31      10/ 17/ 20   N/A
BURNHAM HARBOR             31     360/ 10/ 14   N/A
CALUMET HARBOR             32     350/ 11/ 14 1024.9R
MICHIGAN CITY              33      20/ 17/ 20   N/A
$$

ILZ025>027-034>036-040-047-049-050-058-095>099-291400-
WEST-CENTRAL ILLINOIS

CITY           SKY/WX    TMP DP  RH WIND       PRES   REMARKS
QUINCY         CLEAR     22  18  85 E5        30.28R WCI  16
GALESBURG*     PTCLDY    21  18  91 NE3       30.30R
MACOMB*        CLOUDY    20  19  95 CALM      30.32R
JACKSONVILLE*  PTCLDY    20  17  88 CALM      30.30R
PITTSFIELD*    CLEAR     23  21  93 CALM      30.30R
$$

ILZ028>032-037-038-041>044-048-051>054-059>061-291400-
CENTRAL ILLINOIS

CITY           SKY/WX    TMP DP  RH WIND       PRES   REMARKS
PONTIAC        PTCLDY    20  19  93 CALM      30.32R
BLOOMINGTON    CLEAR     20  18  92 CALM      30.30R
DECATUR        CLEAR     21  19  92 NE3       30.30R
PEORIA         MOCLDY    21  17  84 CALM      30.32R
LACON*         MOCLDY    17  15  90 CALM      30.32R
LINCOLN*       CLEAR     20  18  92 CALM      30.32R
SPRINGFIELD    CLEAR     19  16  88 CALM      30.31R
TAYLORVILLE    CLEAR     23  21  93 NE3       30.29S FOG
$$

ILZ033-039-045-046-055>057-062-063-291400-
EAST-CENTRAL ILLINOIS

CITY           SKY/WX    TMP DP  RH WIND       PRES   REMARKS
CHAMPAIGN      CLEAR     20  16  84 N5        30.30R WCI  13
DANVILLE*      CLEAR     19  17  93 CALM      30.28R
RANTOUL*       CLEAR     22  18  83 N6        30.30R WCI  15
MATTOON        CLEAR     20  18  92 NE5       30.28R WCI  13
PARIS*         CLEAR     21  20  97 CALM      30.30S
$$

ILZ079-100>102-291400-
SOUTHWEST ILLINOIS

CITY           SKY/WX    TMP DP  RH WIND       PRES   REMARKS
ALTON          CLEAR     23  23 100 CALM      30.29R
BELLEVILLE     CLEAR     23  22  99 N3        30.29R
CAHOKIA*       CLEAR     23  19  85 CALM      30.30R
SPARTA*        CLEAR     24  23  95 CALM      30.29R
$$

ILZ064>066-069>071-074>076-080>082-084>086-088>090-092>094-291400-
SOUTH-CENTRAL ILLINOIS

CITY           SKY/WX    TMP DP  RH WIND       PRES   REMARKS
CARBONDALE     CLEAR     25  22  88 N5        30.28R WCI  19
CAIRO*         CLEAR     32  27  81 N6        30.26R WCI  26
EFFINGHAM*     CLEAR     23  20  88 CALM      30.30R
MARION         PTCLDY    25  23  93 MISG      30.28R
MT. VERNON     CLEAR     21  16  79 CALM      30.28R
CENTRALIA*     CLEAR     24  22  91 CALM      30.28R
SALEM*         CLEAR     26  23  89 CALM      30.28R
METROPOLIS*    CLOUDY    31  28  87 N6        30.25R WCI  25
$$

ILZ067-068-072-073-078-083-087-091-291400-
SOUTHEAST ILLINOIS

CITY           SKY/WX    TMP DP  RH WIND       PRES   REMARKS
LAWRENCEVILLE  CLEAR     24  21  88 NE7       30.29R WCI  16
FLORA*         CLEAR     24  23  95 N5        30.29R WCI  18
FAIRFIELD*     CLEAR     24  22  92 N5        30.27R WCI  18
HARRISBURG*    CLOUDY    26  26  99 N3        30.28R FOG
ROBINSON*      CLEAR     22  21  96 N7        30.31R WCI  14
CARMI*         CLOUDY    28  28  98 N3        30.27R
$$

ABBREVIATIONS USED IN REMARKS
   TC - TEMPERATURE IN CELSIUS
  WCI - WIND CHILL INDEX
   HX - HEAT INDEX
  VSB - VISIBILITY
$$



USA.gov is the U.S. government's official web portal to all federal, state and local government web resources and services.